sat.trackr.live / text

‹ back to catalog

STARLINK-4421

NORAD 53488 · 2022-099Z

PAYLOAD ACTIVE UNKNOWN

§ Identity

Operator
Country
US
Launch date
2022-08-12
Launch site
AFWTR
Launch vehicle
Mass (kg)
RCS (m²)

Purposes: comms

External: N2YO · Heavens-Above · Gunter

§ Orbital elements

Epoch: 2026-05-25T01:27:12.953376Z

Period
95.64 min
Inclination
97.4465°
Eccentricity
0.0002317
Mean motion
15.05646503 rev/d
Perigee alt
547.9 km
Apogee alt
551.1 km
Semi-major
6,927.7 km
B*
-1.1705e-5
RAAN
266.1809°
Arg perigee
107.6873°
Mean anomaly
252.4607°
Rev number
20,754

§ Raw data

STARLINK-44211 53488U 22099Z   26145.06056659 -.00000227  00000+0 -11705-4 0  99952 53488  97.4465 266.1809 0002317 107.6873 252.4607 15.05646503207541

JSON: /api/v1/satellites/53488 · /tle

For live sub-satellite position, see the globe view (requires WebGL).

§ Visibility from observer

Set your observer location to see the next 7 days of passes ≥ 10°. The values pass through the URL so the page stays shareable.

No JS? Fill the form by hand. The geolocation button needs JavaScript.